Location: Roland
(31.1349°N, 85.4372°W)
Time: 19:02:57
(UTC+00:00)

SR - Pass Details

Date: 20 April 2021
Orbit: 573 x 882 km, 66.7° (Epoch: 13 May)

Event Time Altitude Azimuth Distance (km) Brightness Sun altitude
Rises 21:53:17 0° 340° (NNW) 3,433 ? 28.9°
Reaches altitude 10° 21:55:55 10° 345° (NNW) 2,463 ? 28.4°
Maximum altitude 22:01:27 52° 61° (ENE) 990 ? 27.2°
Drops below altitude 10° 22:06:33 10° 138° (SE) 2,270 ? 26.1°
Sets 22:08:53 0° 143° (SE) 3,141 ? 25.6°
